Hourly Data Report for December 19, 2017

VICTORIA UNIVERSITY CS
BRITISH COLUMBIA

48°27'25.200" N
123°18'16.600" W
60.10 m
1018598
71783
WYJ

Download Data

Hourly Data (December 2017)
Hourly Data Report for December 19, 2017
TIME
LST
Temp Definition
°C
Dew Point Definition
°C
Rel Hum Definition
%
Precip. Amount Definition
mm

Wind Dir Definition
10's deg

Wind Spd Definition
km/h
Visibility Definition
km
Stn Press Definition
kPa
Hmdx Definition


Wind Chill Definition


Weather Definition


00:00 4.4 3.7 96 1.8 8 2   100.74     LegendNANA
01:00 3.8 2.9 94 2.8 5 2   100.60     LegendNANA
02:00 3.1 2.3 95 3.0 4 4   100.46     LegendNANA
03:00 2.5 1.8 95 3.4 4 3   100.33     LegendNANA
04:00 2.7 2.1 95 3.4 5 4   100.11     LegendNANA
05:00 2.6 2.0 95 4.2 6 6   99.91     LegendNANA
06:00 2.5 1.9 96 4.7 3 5   99.72     LegendNANA
07:00 2.8 2.2 96 5.0 2 7   99.48     LegendNANA
08:00 3.3 2.6 96 4.2 3 9   99.23     LegendNANA
09:00 3.9 3.3 96 2.6 2 18   99.03     LegendNANA
10:00 1.2 0.7 96 2.3 31 14   98.94     LegendNANA
11:00 1.4 0.8 96 0.5 33 17   98.96     LegendNANA
12:00 2.2 1.6 96 0.3 31 12   99.00     LegendNANA
13:00 2.2 1.6 95 0.6 27 8   99.16     LegendNANA
14:00 2.9 2.2 95 1.0 26 8   99.21     LegendNANA
15:00 3.3 2.7 96 0.3 25 5   99.25     LegendNANA
16:00 3.3 2.4 94 0.0 25 8   99.31     LegendNANA
17:00 2.7 2.2 96 0.0 33 3   99.41     LegendNANA
18:00 3.0 2.5 97 0.0 1 3   99.49     LegendNANA
19:00 3.3 2.5 95 0.3 2 4   99.56     LegendNANA
20:00 3.0 2.3 95 0.0 36 5   99.65     LegendNANA
21:00 2.7 2.0 95 0.2 36 7   99.76     LegendNANA
22:00 2.3 1.7 96 0.0 33 10   99.91     LegendNANA
23:00 2.8 2.0 94 0.0 1 11   100.06     LegendNANA

Notes on Data Quality.

Legend

  • E = Estimated
  • M = Missing
  • NA = Not Available*
  • [empty] = Indicates an unobserved value
Date modified: